Previsão horária em Jurgow

Hoje, 22 Junho, Terça-feira

Tempo Temperatura Precipitação Vento Pressão Humidade
00:00 +18°C° 0.1 mm 1 m/s 687 mmHg 87%
01:00 +18°C° 0 mm 1 m/s 686 mmHg 89%
02:00 +18°C° 0 mm 1 m/s 686 mmHg 88%
03:00 +18°C° 0 mm 1 m/s 686 mmHg 88%
04:00 +18°C° 0 mm 1 m/s 686 mmHg 88%
05:00 +19°C° 0.1 mm 1 m/s 687 mmHg 83%
06:00 +21°C° 0.1 mm 1 m/s 687 mmHg 78%
07:00 +23°C° 0.1 mm 1 m/s 687 mmHg 73%
08:00 +24°C° 0.3 mm 1 m/s 688 mmHg 67%
09:00 +26°C° 0.3 mm 2 m/s 688 mmHg 61%
10:00 +27°C° 0.3 mm 2 m/s 688 mmHg 54%
11:00 +27°C° 0.1 mm 2 m/s 688 mmHg 54%
12:00 +28°C° 0.1 mm 2 m/s 688 mmHg 53%
13:00 +28°C° 0.1 mm 2 m/s 688 mmHg 53%
14:00 +27°C° 0.5 mm 2 m/s 689 mmHg 58%
15:00 +26°C° 0.5 mm 2 m/s 689 mmHg 63%
16:00 +26°C° 0.5 mm 2 m/s 689 mmHg 68%
17:00 +24°C° 0.3 mm 1 m/s 689 mmHg 74%
18:00 +23°C° 0.3 mm 1 m/s 688 mmHg 80%
19:00 +21°C° 0.3 mm 1 m/s 688 mmHg 86%
20:00 +20°C° 0.2 mm 1 m/s 688 mmHg 88%
21:00 +19°C° 0.2 mm 1 m/s 689 mmHg 90%
22:00 +18°C° 0.2 mm 1 m/s 689 mmHg 91%
23:00 +18°C° 0 mm 1 m/s 689 mmHg 93%

Amanhã, 23 Junho, Quarta-feira

Tempo Temperatura Precipitação Vento Pressão Humidade
00:00 +18°C° 0 mm 1 m/s 689 mmHg 94%
01:00 +16°C° 0 mm 1 m/s 689 mmHg 96%
02:00 +16°C° 0 mm 1 m/s 689 mmHg 96%
03:00 +16°C° 0 mm 1 m/s 689 mmHg 95%
04:00 +15°C° 0 mm 0 m/s 690 mmHg 95%
05:00 +19°C° 0 mm 1 m/s 690 mmHg 92%
06:00 +20°C° 0 mm 1 m/s 690 mmHg 89%
07:00 +21°C° 0 mm 1 m/s 691 mmHg 86%
08:00 +22°C° 0.1 mm 1 m/s 691 mmHg 82%
09:00 +23°C° 0.1 mm 1 m/s 692 mmHg 78%
10:00 +24°C° 0.1 mm 1 m/s 692 mmHg 74%
11:00 +24°C° 0.4 mm 1 m/s 692 mmHg 75%
12:00 +24°C° 0.4 mm 2 m/s 692 mmHg 76%
13:00 +24°C° 0.4 mm 2 m/s 692 mmHg 77%
14:00 +24°C° 0.5 mm 2 m/s 692 mmHg 77%
15:00 +24°C° 0.5 mm 1 m/s 692 mmHg 77%
16:00 +24°C° 0.5 mm 1 m/s 692 mmHg 77%
17:00 +23°C° 0.4 mm 1 m/s 692 mmHg 82%
18:00 +22°C° 0.4 mm 1 m/s 692 mmHg 86%
19:00 +21°C° 0.4 mm 1 m/s 692 mmHg 91%
20:00 +20°C° 0 mm 1 m/s 692 mmHg 92%
21:00 +19°C° 0 mm 1 m/s 692 mmHg 94%
22:00 +18°C° 0 mm 1 m/s 692 mmHg 96%
23:00 +18°C° 0 mm 1 m/s 692 mmHg 96%

Depois de amanhã, 24 Junho, Quinta-feira

Tempo Temperatura Precipitação Vento Pressão Humidade
00:00 +18°C° 0 mm 1 m/s 692 mmHg 96%
01:00 +18°C° 0 mm 1 m/s 692 mmHg 96%
02:00 +18°C° 0 mm 1 m/s 692 mmHg 96%
03:00 +18°C° 0 mm 1 m/s 692 mmHg 96%
04:00 +18°C° 0 mm 1 m/s 691 mmHg 96%
05:00 +19°C° 0 mm 1 m/s 692 mmHg 91%
06:00 +21°C° 0 mm 1 m/s 692 mmHg 86%
07:00 +23°C° 0 mm 1 m/s 692 mmHg 81%
08:00 +25°C° 0.1 mm 1 m/s 692 mmHg 70%
09:00 +27°C° 0.1 mm 1 m/s 692 mmHg 60%
10:00 +29°C° 0.1 mm 2 m/s 693 mmHg 50%
11:00 +30°C° 0 mm 2 m/s 692 mmHg 46%
12:00 +30°C° 0 mm 3 m/s 692 mmHg 43%
13:00 +31°C° 0 mm 3 m/s 692 mmHg 39%
14:00 +31°C° 0.1 mm 3 m/s 692 mmHg 42%
15:00 +30°C° 0.1 mm 3 m/s 692 mmHg 45%
16:00 +30°C° 0.1 mm 3 m/s 692 mmHg 47%
17:00 +28°C° 0.1 mm 2 m/s 691 mmHg 56%
18:00 +26°C° 0.1 mm 2 m/s 691 mmHg 65%
19:00 +24°C° 0.1 mm 1 m/s 691 mmHg 74%
20:00 +23°C° 0.1 mm 1 m/s 691 mmHg 75%
21:00 +22°C° 0.1 mm 1 m/s 690 mmHg 77%
22:00 +21°C° 0.1 mm 1 m/s 690 mmHg 78%
23:00 +20°C° 0.1 mm 1 m/s 690 mmHg 80%

25 Junho, Sexta-feira

Tempo Temperatura Precipitação Vento Pressão Humidade
00:00 +20°C° 0.1 mm 1 m/s 690 mmHg 81%
01:00 +20°C° 0.1 mm 1 m/s 689 mmHg 82%
02:00 +19°C° 0 mm 1 m/s 689 mmHg 83%
03:00 +19°C° 0 mm 1 m/s 689 mmHg 85%
04:00 +19°C° 0 mm 1 m/s 689 mmHg 86%
05:00 +20°C° 0 mm 1 m/s 689 mmHg 79%
06:00 +22°C° 0 mm 1 m/s 689 mmHg 73%
07:00 +24°C° 0 mm 1 m/s 689 mmHg 67%
08:00 +25°C° 0 mm 2 m/s 690 mmHg 58%
09:00 +27°C° 0 mm 2 m/s 690 mmHg 50%
10:00 +28°C° 0 mm 2 m/s 690 mmHg 42%
11:00 +28°C° 0.1 mm 3 m/s 690 mmHg 44%
12:00 +28°C° 0.1 mm 3 m/s 690 mmHg 45%
13:00 +28°C° 0.1 mm 4 m/s 690 mmHg 47%
14:00 +26°C° 0.5 mm 3 m/s 690 mmHg 54%
15:00 +25°C° 0.5 mm 3 m/s 690 mmHg 61%
16:00 +24°C° 0.5 mm 3 m/s 690 mmHg 67%
17:00 +21°C° 0.2 mm 2 m/s 690 mmHg 75%
18:00 +19°C° 0.2 mm 2 m/s 690 mmHg 83%
19:00 +18°C° 0.2 mm 2 m/s 690 mmHg 91%
20:00 +17°C° 0 mm 2 m/s 690 mmHg 93%
21:00 +16°C° 0 mm 1 m/s 690 mmHg 95%
22:00 +15°C° 0 mm 1 m/s 691 mmHg 97%
23:00 +14°C° 0 mm 1 m/s 690 mmHg 97%

26 Junho, Sábado

Tempo Temperatura Precipitação Vento Pressão Humidade
00:00 +14°C° 0 mm 1 m/s 690 mmHg 97%
01:00 +13°C° 0 mm 1 m/s 690 mmHg 97%
02:00 +13°C° 0 mm 1 m/s 690 mmHg 97%
03:00 +13°C° 0 mm 1 m/s 690 mmHg 96%
04:00 +12°C° 0 mm 1 m/s 690 mmHg 96%
05:00 +13°C° 0 mm 1 m/s 690 mmHg 93%
06:00 +14°C° 0 mm 1 m/s 691 mmHg 90%
07:00 +15°C° 0 mm 2 m/s 691 mmHg 87%
08:00 +17°C° 0.1 mm 2 m/s 691 mmHg 81%
09:00 +18°C° 0.1 mm 2 m/s 692 mmHg 75%
10:00 +19°C° 0.1 mm 2 m/s 692 mmHg 68%
11:00 +19°C° 0.3 mm 3 m/s 692 mmHg 68%
12:00 +19°C° 0.3 mm 3 m/s 692 mmHg 67%
13:00 +19°C° 0.3 mm 3 m/s 692 mmHg 66%
14:00 +19°C° 0.2 mm 3 m/s 692 mmHg 67%
15:00 +18°C° 0.2 mm 2 m/s 692 mmHg 69%
16:00 +18°C° 0.2 mm 2 m/s 692 mmHg 70%
17:00 +17°C° 0.1 mm 2 m/s 692 mmHg 75%
18:00 +18°C° 0.1 mm 1 m/s 691 mmHg 80%
19:00 +16°C° 0.1 mm 1 m/s 691 mmHg 84%
20:00 +15°C° 0 mm 1 m/s 691 mmHg 87%
21:00 +14°C° 0 mm 1 m/s 691 mmHg 90%
22:00 +13°C° 0 mm 1 m/s 692 mmHg 93%
23:00 +12°C° 0 mm 1 m/s 692 mmHg 94%

27 Junho, Domingo

Tempo Temperatura Precipitação Vento Pressão Humidade
00:00 +12°C° 0 mm 1 m/s 692 mmHg 94%
01:00 +12°C° 0 mm 1 m/s 692 mmHg 95%
02:00 +12°C° 0 mm 1 m/s 692 mmHg 94%
03:00 +12°C° 0 mm 1 m/s 692 mmHg 94%
04:00 +12°C° 0 mm 1 m/s 692 mmHg 94%
05:00 +13°C° 0 mm 1 m/s 692 mmHg 88%
06:00 +15°C° 0 mm 1 m/s 692 mmHg 83%
07:00 +16°C° 0 mm 1 m/s 693 mmHg 77%
08:00 +17°C° 0 mm 2 m/s 693 mmHg 70%
09:00 +19°C° 0 mm 2 m/s 693 mmHg 63%
10:00 +20°C° 0 mm 2 m/s 693 mmHg 55%
11:00 +20°C° 0 mm 2 m/s 693 mmHg 54%
12:00 +21°C° 0 mm 2 m/s 693 mmHg 53%
13:00 +21°C° 0 mm 2 m/s 693 mmHg 52%
14:00 +21°C° 0 mm 2 m/s 693 mmHg 51%
15:00 +21°C° 0 mm 2 m/s 693 mmHg 51%
16:00 +21°C° 0 mm 2 m/s 693 mmHg 50%
17:00 +20°C° 0 mm 2 m/s 693 mmHg 59%
18:00 +19°C° 0 mm 1 m/s 693 mmHg 69%
19:00 +18°C° 0 mm 1 m/s 693 mmHg 78%
20:00 +15°C° 0 mm 1 m/s 693 mmHg 81%
21:00 +14°C° 0 mm 1 m/s 693 mmHg 83%
22:00 +13°C° 0 mm 1 m/s 693 mmHg 86%
23:00 +13°C° 0 mm 1 m/s 693 mmHg 87%
Mostrar mais

Necessitamos do seu Consentimento

A Meteoprog e os seus Fornecedores de Serviços podem armazenar e aceder a dados pessoais como cookies, identificadores do dispositivo ou outras tecnologias semelhantes existentes no seu dispositivo e processar estes dados para personalizar conteúdos e anúncios, assim como funcionalidades nas redes sociais e análise de tráfego.

  • Armazenar e/ou aceder a informações no seu dispositivo

    Os cookies, identificadores do dispositivo ou outras informações podem ser armazenados ou acedidos no seu dispositivo, para os fins acima indicados.

  • Anúncios e conteúdos personalizados, medição de anúncios e conteúdos, dados sobre o público-alvo e desenvolvimento de produtos

    Os anúncios e os conteúdos podem ser personalizados com base num perfil. Podem ser adicionados dados adicionais para uma maior personalização dos anúncios e dos conteúdos. A eficácia dos anúncios e dos conteúdos pode ser medida. Podem ser obtidas informações sobre o público que visualizou os anúncios e os conteúdos. Estes dados podem ser usados para desenvolver ou melhorar sistemas, softwares ou a experiência do utilizador.

Ao clicar em "Eu concordo”, permitirá o uso de cookies, identificadores do dispositivo e web beacons mencionados ou outras tecnologias semelhantes. As configurações do navegador do seu dispositivo podem ser alteradas.

Para certos fins, podem ser invocados interesses legítimos ao invés de consentimento. Pode ler mais informação sobre este assunto na nossa Política de Privacidade e Cookies.